Powrót do katalogu

STARLINK-3768

AktywnyŁącznośćVLEO
NORAD 52301·PAYLOAD·🇺🇸 United States

Wystrzelony Apr 21, 2022 z Cape Canaveral Space Force Station

Loading…

Następne Przeloty (najbliższe 24 godziny)

TLE

ŚwieżeSource: CelesTrak SupGP

Epoka: Sep 14, 2026, 21:02 UTC

1 52301C 22041AS  26257.87687500 -.00026636  00000+0 -80852-3 0  2570
2 52301  53.1584 318.2687 0001249  75.3124 243.0257 15.33551763    15

Śledź STARLINK-3768 w czasie rzeczywistym z AllMySat

Download on the App Store